YAOGAN-30 05C (43172 NORAD) Tracking and Keplerian Element Data

This shows tracking and keplerian element data for the satellite.

Feedback or suggestion? Click here.




ElementValue
Catalog43172
NameYAOGAN-30 05C
Epoch Orbit38334
Epoch Day35.06223893
Epoch Year2025
RAAN298.503
Inclination34.9971
Eccentricity0.0003588
Argument of Perigee8.1842
Mean Anonmoly351.8923
Mean Motion14.98683209
Decay Rate6.059E-05
L11 43172U 18011D 25035.06223893 .00006059 00000+0 49621-3 0 9990
L22 43172 34.9971 298.5030 0003588 8.1842 351.8923 14.98683209383348



Live tracking and technical data element details for YAOGAN-30 05C (NORAD 43172). YAOGAN-30 05C can be tracked NOW for your location showing map with azimuth and elevation plus other details from your city location.







IsCatalogInMostPopularTable: catalog: 43172, numindb: 427
Update: records affected: 1



GetName: 43172 YAOGAN-30 05C

Hit Count: updated at: Thu, 22 May 2025 04:43:18 GMT